Weather History for Big Rapids, MI

Change the Weather History Date:

Wednesday, June 18, 2014

  Actual Average Record
Temperature  
Mean Temperature 68 °F -  
Max Temperature 72 °F 77 °F 89 °F (2007)
Min Temperature 63 °F 51 °F 37 °F (1999)
Cooling Degree Days 2    
Growing Degree Days 18 (Base 50)    
Moisture  
Dew Point 67 °F    
Average Humidity 98    
Maximum Humidity 100    
Minimum Humidity 88    
Precipitation  
Precipitation 0.58 in - - ()
Sea Level Pressure  
Sea Level Pressure 29.99 in    
Wind  
Wind Speed 5 mph (East)    
Max Wind Speed 18 mph    
Max Gust Speed 26 mph    
Visibility 9 miles    
Events Rain    
Averages and records for this station are not official NWS values.
T = Trace of Precipitation, MM = Missing Value Source: NWS Daily Summary

Daily Weather History Graph

Daily Weather History Graph

Search for Another Location

Airport:

Trip Planner

Search our weather history database for the weather conditions in past years. The results will help you decide how hot, cold, wet, or windy it might be!

Date:

Astronomy

Jun. 18, 2014 Rise Set
Actual Time 5:59 AM EDT 9:26 PM EDT
Civil Twilight 5:23 AM EDT 10:02 PM EDT
Nautical Twilight 4:36 AM EDT 10:50 PM EDT
Astronomical Twilight 3:36 AM EDT 11:49 PM EDT
Moon 12:44 AM EDT (6/18) 12:33 PM EDT (6/18)
Length of Visible Light 16h 39m
Length of Day
15h 26m
Waning Gibbous, 63% of the Moon is Illuminated
Jun 18
Waning Gibbous
Jun 19
Last Quarter
Jun 27
New
Jul 5
First Quarter
Jul 12
Full

Hourly Weather History & Observations

Time (EDT) Temp. Dew Point Humidity Pressure Visibility Wind Dir Wind Speed Gust Speed Precip Events Conditions
12:14 AM 64.9 °F 64.9 °F 100% 29.97 in 7.0 mi WNW 6.9 mph - N/A   Overcast
12:35 AM 64.8 °F 64.8 °F 100% 29.97 in 7.0 mi West 3.5 mph - N/A   Overcast
12:55 AM 65.3 °F 65.3 °F 100% 29.96 in 10.0 mi Calm Calm - N/A   Overcast
1:14 AM 65.3 °F 65.3 °F 100% 29.95 in 7.0 mi Calm Calm - N/A   Mostly Cloudy
1:35 AM 64.6 °F 64.6 °F 100% 29.96 in 7.0 mi Calm Calm - N/A   Mostly Cloudy
1:55 AM 64.8 °F 64.8 °F 100% 29.95 in 7.0 mi Calm Calm - N/A   Mostly Cloudy
2:14 AM 64.6 °F 64.6 °F 100% 29.94 in 7.0 mi Calm Calm - N/A   Scattered Clouds
2:35 AM 63.5 °F 63.5 °F 100% 29.95 in 5.0 mi SSE 5.8 mph - N/A   Clear
2:55 AM 64.4 °F 64.4 °F 100% 29.95 in 7.0 mi Calm Calm - N/A   Clear
3:14 AM 64.4 °F 64.4 °F 100% 29.95 in 10.0 mi NW 3.5 mph - N/A   Scattered Clouds
3:35 AM 64.4 °F 64.4 °F 100% 29.95 in 7.0 mi NW 3.5 mph - N/A   Scattered Clouds
3:55 AM 64.9 °F 64.9 °F 100% 29.96 in 7.0 mi SSE 9.2 mph - N/A   Overcast
4:14 AM 66.0 °F 66.0 °F 100% 29.94 in 10.0 mi SSE 6.9 mph - N/A   Mostly Cloudy
4:35 AM 66.2 °F 66.2 °F 100% 29.94 in 10.0 mi NNW 8.1 mph - N/A   Overcast
4:55 AM 66.2 °F 66.2 °F 100% 29.97 in 10.0 mi SW 5.8 mph - N/A   Overcast
5:14 AM 66.2 °F 66.2 °F 100% 29.95 in 10.0 mi ENE 4.6 mph - N/A   Scattered Clouds
5:35 AM 66.2 °F 66.2 °F 100% 29.97 in 10.0 mi Calm Calm - N/A Rain Light Rain
5:55 AM 65.8 °F 65.8 °F 100% 29.95 in 7.0 mi WNW 5.8 mph - N/A Rain Light Rain
6:14 AM 65.7 °F 65.7 °F 100% 30.00 in 7.0 mi NNW 5.8 mph - N/A Rain Light Rain
6:35 AM 66.0 °F 66.0 °F 100% 30.04 in 7.0 mi West 8.1 mph - 0.02 in Rain Rain
6:54 AM 66.2 °F 66.2 °F 100% 30.04 in 2.5 mi North 3.5 mph - 0.08 in Rain Rain
7:15 AM 65.8 °F 65.8 °F 100% 30.05 in 2.5 mi NNW 4.6 mph - 0.06 in Rain Heavy Rain
7:35 AM 65.5 °F 65.5 °F 100% 30.03 in 4.0 mi North 9.2 mph - 0.15 in Rain Heavy Rain
7:54 AM 65.7 °F 65.7 °F 100% 30.00 in 3.0 mi East 6.9 mph - 0.21 in Rain Rain
8:15 AM 65.5 °F 65.5 °F 100% 29.98 in 4.0 mi East 5.8 mph - 0.05 in Rain Heavy Rain
8:34 AM 65.3 °F 65.3 °F 100% 30.00 in 7.0 mi SSE 8.1 mph - 0.09 in Rain Rain
8:55 AM 65.5 °F 65.5 °F 100% 29.99 in 7.0 mi SSE 6.9 mph - 0.13 in Rain Rain
9:15 AM 65.5 °F 65.5 °F 100% 29.91 in 5.0 mi ENE 8.1 mph - 0.03 in Rain Light Rain
9:34 AM 65.7 °F 65.7 °F 100% 29.98 in 10.0 mi SSW 13.8 mph 19.6 mph 0.04 in   Overcast
9:55 AM 66.2 °F 66.2 °F 100% 29.98 in 10.0 mi SSE 12.7 mph 19.6 mph 0.04 in   Overcast
10:15 AM 66.6 °F 66.6 °F 100% 29.98 in 10.0 mi South 9.2 mph 16.1 mph N/A   Overcast
10:34 AM 66.7 °F 66.7 °F 100% 30.01 in 10.0 mi Calm Calm - N/A   Overcast
10:55 AM 67.1 °F 67.1 °F 100% 30.01 in 10.0 mi Calm Calm - N/A Rain Light Rain
11:15 AM 67.3 °F 67.3 °F 100% 30.03 in 10.0 mi Calm Calm - N/A   Overcast
11:34 AM 67.5 °F 67.5 °F 100% 30.02 in 10.0 mi Calm Calm - N/A Rain Light Rain
11:55 AM 67.3 °F 67.3 °F 100% 29.99 in 10.0 mi SSE 5.8 mph - N/A Rain Light Rain
12:15 PM 68.4 °F 68.4 °F 100% 30.00 in 10.0 mi SSE 5.8 mph - N/A   Mostly Cloudy
12:34 PM 68.2 °F 68.2 °F 100% 30.02 in 10.0 mi SSE 5.8 mph - N/A   Mostly Cloudy
12:55 PM 68.0 °F 68.0 °F 100% 30.05 in 7.0 mi WSW 6.9 mph - 0.01 in Rain Rain
1:14 PM 67.6 °F 67.6 °F 100% 30.06 in 7.0 mi WSW 8.1 mph - 0.02 in Rain Light Rain
1:35 PM 67.1 °F 67.1 °F 100% 30.04 in 5.0 mi West 3.5 mph - 0.06 in Rain Rain
1:55 PM 67.1 °F 67.1 °F 100% 30.03 in 5.0 mi WNW 4.6 mph - 0.10 in Rain Light Rain
2:14 PM 67.1 °F 67.1 °F 100% 29.97 in 10.0 mi East 9.2 mph - 0.01 in Rain Light Rain
2:35 PM 67.1 °F 67.1 °F 100% 29.91 in 10.0 mi East 18.4 mph 26.5 mph 0.01 in Rain Light Rain
2:55 PM 68.7 °F 68.7 °F 100% 29.90 in 10.0 mi East 16.1 mph 26.5 mph 0.01 in   Scattered Clouds
3:14 PM 70.5 °F 70.5 °F 100% 29.90 in 10.0 mi ESE 10.4 mph 25.3 mph N/A   Scattered Clouds
3:35 PM 72.0 °F 69.8 °F 93% 29.89 in 10.0 mi ESE 15.0 mph 20.7 mph N/A   Clear
3:55 PM 72.0 °F 68.9 °F 90% 29.90 in 10.0 mi ESE 15.0 mph 23.0 mph N/A   Clear
4:14 PM 71.8 °F 68.2 °F 88% 29.92 in 10.0 mi East 9.2 mph - N/A   Clear
4:35 PM 71.4 °F 68.2 °F 89% 29.93 in 10.0 mi East 8.1 mph - N/A   Scattered Clouds
4:55 PM 71.1 °F 68.4 °F 91% 29.94 in 10.0 mi NNE 4.6 mph - N/A   Scattered Clouds
5:14 PM 71.6 °F 69.1 °F 92% 29.97 in 10.0 mi NNE 6.9 mph - N/A   Mostly Cloudy
5:35 PM 71.6 °F 68.5 °F 90% 30.00 in 10.0 mi North 9.2 mph - N/A   Overcast
5:55 PM 71.4 °F 68.9 °F 92% 30.00 in 10.0 mi NNE 4.6 mph - N/A   Overcast
6:14 PM 71.2 °F 68.7 °F 92% 30.00 in 10.0 mi Calm Calm - N/A   Overcast
6:35 PM 71.2 °F 68.9 °F 92% 30.00 in 10.0 mi Calm Calm - N/A   Overcast
6:55 PM 71.1 °F 68.9 °F 93% 30.00 in 10.0 mi Calm Calm - N/A   Overcast
7:14 PM 70.9 °F 69.4 °F 95% 30.00 in 10.0 mi Calm Calm - N/A   Overcast
7:35 PM 70.7 °F 69.8 °F 97% 30.00 in 10.0 mi ENE 3.5 mph - N/A   Overcast
7:55 PM 70.7 °F 69.8 °F 97% 29.98 in 10.0 mi East 5.8 mph - N/A   Overcast
8:14 PM 70.7 °F 69.4 °F 96% 29.98 in 10.0 mi NNE 3.5 mph - N/A   Overcast
8:35 PM 70.7 °F 69.8 °F 97% 29.99 in 10.0 mi NE 4.6 mph - N/A   Overcast
8:55 PM 70.9 °F 69.8 °F 96% 29.99 in 10.0 mi ENE 6.9 mph - N/A   Overcast
9:14 PM 70.7 °F 69.4 °F 96% 30.00 in 10.0 mi East 3.5 mph - N/A   Overcast
9:35 PM 70.0 °F 69.1 °F 97% 30.01 in 10.0 mi East 3.5 mph - N/A   Overcast
9:55 PM 69.4 °F 68.0 °F 95% 30.02 in 10.0 mi East 6.9 mph 19.6 mph N/A   Overcast
10:14 PM 68.9 °F 68.4 °F 98% 30.04 in 10.0 mi East 6.9 mph - N/A   Overcast
10:35 PM 68.5 °F 68.0 °F 98% 30.06 in 10.0 mi East 6.9 mph - N/A   Overcast
10:55 PM 68.0 °F 68.0 °F 100% 30.06 in 10.0 mi East 17.3 mph 25.3 mph N/A   Overcast
11:14 PM 67.1 °F 67.1 °F 100% 30.06 in 10.0 mi East 12.7 mph 26.5 mph N/A   Overcast
11:35 PM 66.2 °F 66.2 °F 100% 30.06 in 10.0 mi East 10.4 mph 20.7 mph N/A   Overcast
11:55 PM 65.8 °F 64.8 °F 96% 30.05 in 10.0 mi East 10.4 mph 17.3 mph N/A   Overcast